| time (UTC) | temp F | wind direction | speed knots | gust knots | rain 1hr in | rain 24hr in | rain mn in | humidity % | barometer mb |
| 20260504204539 | 61 | 178 | 0.0 | 1.7 | 0.00 | 0.00 | 0.00 | 56 | 1011.0 |
| 20260504203038 | 62 | 269 | 0.0 | 1.7 | 0.00 | 0.00 | 0.00 | 54 | 1011.0 |
| 20260504201538 | 64 | 46 | 0.0 | 1.7 | 0.00 | 0.00 | 0.00 | 52 | 1010.8 |
| 20260504200038 | 65 | 284 | 0.9 | 3.5 | 0.00 | 0.00 | 0.00 | 50 | 1010.8 |
| 20260504194545 | 64 | 314 | 1.7 | 2.6 | 0.00 | 0.00 | 0.00 | 51 | 1010.7 |
| 20260504193037 | 67 | 331 | 0.9 | 2.6 | 0.00 | 0.00 | 0.00 | 47 | 1010.6 |
| 20260504191537 | 68 | 46 | 0.0 | 0.9 | 0.00 | 0.00 | 0.00 | 43 | 1010.5 |
| 20260504190043 | 70 | 178 | 0.0 | 2.6 | 0.00 | 0.00 | 0.00 | 41 | 1010.5 |
| 20260504184545 | 71 | 245 | 0.9 | 3.5 | 0.00 | 0.00 | 0.00 | 39 | 1010.5 |
| 20260504183033 | 72 | 236 | 2.6 | 5.2 | 0.00 | 0.00 | 0.00 | 38 | 1010.4 |
| 20260504181536 | 73 | 221 | 2.6 | 6.1 | 0.00 | 0.00 | 0.00 | 37 | 1010.2 |
| 20260504180033 | 74 | 202 | 0.9 | 3.5 | 0.00 | 0.00 | 0.00 | 36 | 1010.1 |
| 20260504174532 | 75 | 237 | 1.7 | 4.3 | 0.00 | 0.00 | 0.00 | 34 | 1010.1 |
| 20260504173030 | 76 | 238 | 2.6 | 6.1 | 0.00 | 0.00 | 0.00 | 32 | 1010.0 |
| 20260504171531 | 77 | 250 | 1.7 | 6.1 | 0.00 | 0.00 | 0.00 | 31 | 1010.0 |
| 20260504081526 | 72 | 337 | 7.0 | 15.6 | 0.00 | 0.00 | 0.00 | 33 | 1013.0 |
| 20260504044527 | 60 | 229 | 4.3 | 10.4 | 0.00 | 0.00 | 0.00 | 45 | 1013.1 |
| 20260504043027 | 59 | 191 | 2.6 | 7.8 | 0.00 | 0.00 | 0.00 | 47 | 1013.0 |
| 20260504041530 | 57 | 239 | 3.5 | 7.0 | 0.00 | 0.00 | 0.00 | 49 | 1013.0 |
| 20260504040014 | 56 | 215 | 1.7 | 4.3 | 0.00 | 0.00 | 0.00 | 51 | 1013.0 |
| 20260504034509 | 55 | 199 | 0.9 | 4.3 | 0.00 | 0.00 | 0.00 | 53 | 1013.1 |
| 20260504033006 | 54 | 208 | 1.7 | 5.2 | 0.00 | 0.00 | 0.00 | 54 | 1013.1 |
| 20260504031505 | 53 | 200 | 2.6 | 4.3 | 0.00 | 0.00 | 0.00 | 56 | 1013.0 |
| 20260504030001 | 53 | 213 | 1.7 | 4.3 | 0.00 | 0.00 | 0.00 | 58 | 1013.1 |
| 20260504024605 | 52 | 175 | 1.7 | 4.3 | 0.00 | 0.00 | 0.00 | 60 | 1013.1 |
| 20260504023059 | 52 | 178 | 0.9 | 3.5 | 0.00 | 0.00 | 0.00 | 60 | 1013.1 |
| 20260504021558 | 53 | 193 | 0.9 | 2.6 | 0.00 | 0.00 | 0.00 | 59 | 1013.1 |
| 20260504020110 | 53 | 187 | 0.9 | 2.6 | 0.00 | 0.00 | 0.00 | 60 | 1013.2 |
| 20260504014556 | 54 | 145 | 0.9 | 2.6 | 0.00 | 0.00 | 0.00 | 58 | 1013.1 |
| 20260504013057 | 55 | 165 | 0.9 | 1.7 | 0.00 | 0.00 | 0.00 | 56 | 1013.1 |
| 20260504011554 | 55 | 210 | 0.9 | 2.6 | 0.00 | 0.00 | 0.00 | 56 | 1013.3 |
| 20260504010055 | 55 | 195 | 0.9 | 3.5 | 0.00 | 0.00 | 0.00 | 55 | 1013.2 |
| 20260504004554 | 56 | 220 | 1.7 | 3.5 | 0.00 | 0.00 | 0.00 | 55 | 1013.1 |
| 20260504003053 | 56 | 232 | 0.9 | 3.5 | 0.00 | 0.00 | 0.00 | 55 | 1013.1 |
| 20260504001555 | 55 | 186 | 1.7 | 3.5 | 0.00 | 0.00 | 0.00 | 56 | 1013.2 |
| 20260504000051 | 55 | 199 | 0.9 | 2.6 | 0.00 | 0.00 | 0.00 | 56 | 1013.1 |
| 20260503234605 | 53 | 206 | 0.9 | 3.5 | 0.00 | 0.00 | 0.00 | 60 | 1013.2 |
| 20260503233049 | 51 | 46 | 0.0 | 1.7 | 0.00 | 0.00 | 0.00 | 62 | 1013.2 |
| 20260503231545 | 51 | 117 | 0.0 | 2.6 | 0.00 | 0.00 | 0.00 | 63 | 1013.3 |
| 20260503230042 | 51 | 117 | 0.0 | 0.9 | 0.00 | 0.00 | 0.00 | 60 | 1013.4 |
| 20260503224539 | 52 | 89 | 0.9 | 1.7 | 0.00 | 0.00 | 0.00 | 58 | 1013.3 |
| 20260503223036 | 53 | 135 | 0.0 | 1.7 | 0.00 | 0.00 | 0.00 | 58 | 1013.5 |
| 20260503221536 | 54 | 223 | 0.0 | 0.9 | 0.00 | 0.00 | 0.00 | 56 | 1013.5 |
| 20260503220030 | 55 | 269 | 0.0 | 1.7 | 0.00 | 0.00 | 0.00 | 54 | 1013.5 |
| 20260503214529 | 57 | 46 | 0.0 | 0.9 | 0.00 | 0.00 | 0.00 | 50 | 1013.5 |
| 20260503213030 | 56 | 178 | 0.9 | 3.5 | 0.00 | 0.00 | 0.00 | 51 | 1013.5 |
| 20260503211529 | 56 | 197 | 0.0 | 0.9 | 0.00 | 0.00 | 0.00 | 50 | 1013.5 |
| 20260503210028 | 57 | 46 | 0.0 | 1.7 | 0.00 | 0.00 | 0.00 | 50 | 1013.4 |